User: anonymous   Login
Location: Plum
(40.5000°N, 79.7500°W)
Time: 22:15:43
(UTC-04:00)
Language:

Cosmos 1825 - Orbit

View from above orbital plane
View from above orbital plane
View from above satellite
View from above satellite

Ground track
Ground track

The orbit data is extracted from the following two-line orbital elements,

1 17566U 87024A   14295.22958924  .00006540  00000-0  36620-3 0  1298
2 17566 082.5073 168.1320 0004611 001.0873 359.0367 15.13262665506959
Epoch (UTC): 22 October 2014 05:30:36
Eccentricity: 0.0004611
inclination: 82.5073°
perigee height: 523 km
apogee height: 529 km
right ascension of ascending node: 168.1320°
argument of perigee: 1.0873°
revolutions per day: 15.13262665
mean anomaly at epoch: 359.0367°
orbit number at epoch: 50695

The dashed part of the orbit path shows where the satellite is in the earth's shadow,  

DLR